[[{"header":{"parameterUnit":"m.s-1","parameterCategory":1,"la1":30.2991,"la2":30.254,"lo1":-89.0895,"lo2":-89.0444,"dy":0.0017,"dx":0.0017,"nx":28,"ny":28,"refTime":"2024-08-28T09:00:00:Z","depth":0,"parameterNumber":2,"parameterNumberName":"U-component_of_WINDS"},"data":[0,0,0,0,0,0,0,0,0,0,0,0,0,0,0,0,0,0,0,0,0,0,0,0,0,0,0,0,0,0,0,0,0,0,0,0,0,0,0,0,0,0,0,0,0,0,0,0,0,0,0,0,0,0,0,0,0,0,-2.0607,-2.0606,0,-2.0522,-2.0521,-2.052,-2.0499,-2.05,-2.05,-2.0501,-2.041,-2.0407,-2.0404,0,0,0,0,0,0,0,0,0,0,0,0,0,-2.0747,-2.0744,-2.0607,-2.0606,-2.0605,-2.0522,-2.0521,-2.052,-2.0499,-2.05,-2.0501,-2.0501,-2.0411,-2.0407,-2.0404,0,0,0,0,0,0,0,0,0,0,0,0,0,-2.0676,-2.0744,-2.0607,-2.0585,-2.0582,-2.0523,-2.0521,-2.052,-2.0499,-2.05,-2.0501,-2.0501,-2.0412,-2.0407,-2.0403,-2.0359,0,0,-2.039,-2.0388,0,0,0,0,0,0,0,0,-2.068,-2.0671,-2.0589,-2.0586,-2.0583,-2.0522,-2.0537,-2.0466,-2.0499,-2.053,-2.0501,-2.0502,-2.0446,-2.0439,-2.0421,-2.0355,-2.0351,-2.0389,-2.0386,-2.0385,-2.0383,0,0,0,0,0,0,0,-2.0685,-2.0675,-2.0573,-2.0588,-2.0584,-2.0577,-2.0568,-2.0523,-2.0484,-2.0528,-2.0526,-2.0516,-2.0444,-2.0425,-2.0419,-2.0349,-2.0389,-2.0385,-2.0383,-2.0381,-2.0242,-2.0242,0,0,0,0,0,0,-2.0695,-2.0679,-2.0576,-2.0571,-2.0635,-2.0574,-2.0564,-2.0541,-2.0485,-2.0477,-2.0516,-2.0516,-2.0432,-2.0424,-2.0415,-2.036,-2.0385,-2.038,-2.0378,-2.0243,-2.0242,-2.0241,0,0,0,0,0,0,-2.0698,-2.0686,-2.0579,-2.0624,-2.061,-2.0571,-2.0545,-2.0539,-2.0519,-2.0476,-2.0468,-2.0504,-2.0433,-2.0422,-2.0373,-2.0356,-2.0378,-2.0374,-2.0245,-2.0243,-2.0242,-2.0248,0,0,0,0,0,0,-2.0702,-2.0687,-2.0671,-2.0624,-2.0608,-2.054,-2.0544,-2.0536,-2.0512,-2.0512,-2.0462,-2.0455,-2.0433,-2.038,-2.0369,-2.0351,-2.0371,-2.0246,-2.0244,-2.0242,-2.0249,-2.0247,-2.0245,0,0,0,0,0,-2.0707,-2.0675,-2.067,-2.0657,-2.0587,-2.0539,-2.0529,-2.0505,-2.0511,-2.0494,-2.0466,-2.0457,-2.0361,-2.0375,-2.0363,-2.0343,-2.0247,-2.0245,-2.0242,-2.025,-2.0248,-2.0245,0,0,0,0,0,0,-2.0718,-2.0668,-2.0662,-2.0614,-2.0581,-2.0535,-2.0513,-2.0503,-2.0467,-2.0467,-2.0438,-2.0427,-2.0381,-2.0357,-2.0375,-2.0297,-2.0304,-2.0299,-2.0314,-2.0311,-2.0309,-2.0315,-2.0367,0,0,0,0,0,-2.0715,-2.0682,-2.064,-2.0601,-2.0585,-2.0552,-2.053,-2.0515,-2.0479,-2.0464,-2.0433,-2.0397,-2.0359,-2.0334,-2.0296,-2.0247,-2.0235,-2.0227,-2.0225,-2.0223,-2.0219,-2.019,-2.0186,-2.0234,-2.0234,-2.0234,0,0,-2.0708,-2.0677,-2.0657,-2.0603,-2.0575,-2.054,-2.054,-2.0503,-2.0476,-2.0458,-2.0411,-2.0387,-2.0345,-2.0296,-2.0273,-2.0274,-2.0203,-2.022,-2.0219,-2.0215,-2.0188,-2.0183,-2.0179,-2.0232,-2.0232,-2.0233,0,0,-2.0678,-2.0651,-2.0616,-2.059,-2.0549,-2.0527,-2.0519,-2.0475,-2.0459,-2.0411,-2.0397,-2.0365,-2.0299,-2.027,-2.0247,-2.0207,-2.0196,-2.0195,-2.0184,-2.0157,-2.0153,-2.0149,-2.0134,-2.0129,-2.0191,-2.0191,-2.0191,0,-2.0674,-2.0621,-2.0599,-2.0563,-2.0539,-2.0523,-2.0487,-2.0462,-2.041,-2.0393,-2.0397,-2.0315,-2.0286,-2.023,-2.022,-2.0202,-2.0191,-2.02,-2.0156,-2.0152,-2.0148,-2.0133,-2.0128,-2.0191,-2.0191,-2.0191,-2.0191,0,-2.0618,-2.0582,-2.0559,-2.0511,-2.0485,-2.0449,-2.042,-2.0396,-2.0383,-2.0361,-2.0313,-2.0278,-2.0233,-2.0219,-2.0205,-2.0161,-2.0163,-2.0162,-2.0167,-2.0144,-2.013,-2.0124,-2.0191,-2.0191,-2.0191,-2.0191,0,0,-2.059,-2.0533,-2.0524,-2.0502,-2.0457,-2.0428,-2.0391,-2.0349,-2.0328,-2.0294,-2.0261,-2.0207,-2.0206,-2.018,-2.0163,-2.0139,-2.0109,-2.0141,-2.0139,-2.0135,-2.0057,-2.0058,-2.0052,-2.0103,-2.0102,-2.0101,-2.0061,0,-2.0553,-2.0488,-2.0468,-2.0413,-2.0379,-2.0364,-2.0332,-2.03,-2.0279,-2.0246,-2.0222,-2.0184,-2.0185,-2.0169,-2.0146,-2.0118,-2.0093,-2.0121,-2.0071,-2.007,-2.0081,-2.0044,-2.0045,-2.0008,-2.0055,-2.0054,-2.0053,0,-2.0501,-2.0467,-2.0409,-2.0369,-2.0354,-2.0325,-2.0285,-2.0254,-2.0218,-2.0204,-2.0175,-2.0161,-2.0121,-2.0131,-2.0075,-2.0094,-2.0073,-2.0057,-2.0055,-2.0048,-2.0059,-2.0035,-1.9995,-1.9989,-2.0044,-2.0045,-2.0046,0,-2.0485,-2.0425,-2.0383,-2.0365,-2.0317,-2.0297,-2.0276,-2.024,-2.0217,-2.0181,-2.0165,-2.0125,-2.0103,-2.0072,-2.0047,-2.0057,-1.9993,-2.0001,-1.9979,-1.998,-1.9965,-1.9966,-1.992,-1.9954,-1.9954,-1.9954,-1.9954,0,-2.0445,-2.041,-2.0375,-2.0349,-2.0309,-2.0286,-2.0247,-2.0225,-2.0194,-2.0162,-2.0147,-2.0117,-2.0087,-2.0054,-2.0034,-1.999,-1.998,-1.9967,-1.9962,-1.9968,-1.9969,-1.9952,-1.9953,-1.9953,-1.9953,-1.9953,-1.9954,0,-2.042,-2.0396,-2.0348,-2.0307,-2.0296,-2.0269,-2.0233,-2.0206,-2.0186,-2.0146,-2.0135,-2.0101,-2.0061,-2.0034,-1.9982,-1.9969,-1.9921,-1.9917,-1.9934,-1.9931,-1.9911,-1.9913,-1.9851,-1.9841,-1.9883,-1.9883,-1.9882,0,-2.0395,-2.0368,-2.0325,-2.0303,-2.0283,-2.0248,-2.0224,-2.0201,-2.0176,-2.0133,-2.0112,-2.0071,-2.0037,-1.9973,-1.9943,-1.9903,-1.9897,-1.9879,-1.9891,-1.9898,-1.9896,-1.9897,-1.9894,-1.9876,-1.9876,-1.9875,-1.9875,0,-2.0354,-2.0343,-2.031,-2.0273,-2.0245,-2.0214,-2.0183,-2.0166,-2.0137,-2.011,-2.0069,-2.0043,-1.9991,-1.995,-1.9908,-1.9885,-1.9875,-1.9872,-1.9865,-1.9869,-1.988,-1.9873,-1.9927,-1.9873,-1.9873,-1.9873,-1.9873,-1.9873,-2.0327,-2.0302,-2.0268,-2.0232,-2.0206,-2.0178,-2.0151,-2.0128,-2.0094,-2.005,-2.0038,-1.9996,-1.9961,-1.9903,-1.988,-1.9846,-1.9847,-1.9837,-1.9834,-1.9831,-1.9831,-1.9887,-1.9838,-1.9838,-1.9838,-1.9838,-1.9838,0,-2.0284,-2.0262,-2.0229,-2.0186,-2.0157,-2.0153,-2.0118,-2.0094,-2.0057,-2.0026,-1.9993,-1.9947,-1.9908,-1.9876,-1.9835,-1.9814,-1.9808,-1.9804,-1.9804,-1.9799,-1.9832,-1.9842,-1.9809,-1.9809,-1.9809,-1.9809,-1.9809,-1.9809,-2.0258,-2.0216,-2.0202,-2.0146,-2.0124,-2.0084,-2.0064,-2.0038,-2.0012,-1.9962,-1.993,-1.991,-1.9878,-1.9835,-1.9799,-1.979,-1.9775,-1.9772,-1.9762,-1.9793,-1.9797,-1.98,-1.9809,-1.9769,-1.9769,-1.9732,-1.9731,-1.9731]},{"header":{"parameterUnit":"m.s-1","parameterCategory":1,"la1":30.2991,"la2":30.254,"lo1":-89.0895,"lo2":-89.0444,"dy":0.0017,"dx":0.0017,"nx":28,"ny":28,"refTime":"2024-08-28T09:00:00:Z","depth":0,"parameterNumber":3,"parameterNumberName":"V-component_of_WINDS"},"data":[0,0,0,0,0,0,0,0,0,0,0,0,0,0,0,0,0,0,0,0,0,0,0,0,0,0,0,0,0,0,0,0,0,0,0,0,0,0,0,0,0,0,0,0,0,0,0,0,0,0,0,0,0,0,0,0,0,0,3.773,3.7731,0,3.7757,3.7757,3.7758,3.779,3.779,3.7791,3.7791,3.7815,3.7815,3.7815,0,0,0,0,0,0,0,0,0,0,0,0,0,3.7704,3.7705,3.773,3.7731,3.7731,3.7757,3.7757,3.7758,3.7789,3.779,3.7791,3.7791,3.7815,3.7815,3.7815,0,0,0,0,0,0,0,0,0,0,0,0,0,3.7722,3.7705,3.773,3.775,3.7752,3.7757,3.7757,3.7758,3.7789,3.779,3.7791,3.7792,3.7815,3.7815,3.7815,3.7802,0,0,3.7816,3.7816,0,0,0,0,0,0,0,0,3.7721,3.7723,3.7747,3.7749,3.7751,3.7771,3.7757,3.7772,3.7789,3.7775,3.7791,3.7792,3.7799,3.7801,3.7804,3.7803,3.7804,3.7816,3.7816,3.7816,3.7817,0,0,0,0,0,0,0,3.7719,3.7722,3.7741,3.7747,3.775,3.7757,3.776,3.776,3.7783,3.7776,3.7779,3.7782,3.7801,3.7804,3.7805,3.7804,3.7816,3.7816,3.7817,3.7817,3.7794,3.7793,0,0,0,0,0,0,3.7716,3.772,3.774,3.7742,3.7738,3.7757,3.776,3.7764,3.7783,3.7786,3.7781,3.7783,3.7803,3.7805,3.7806,3.7792,3.7816,3.7817,3.7817,3.7794,3.7794,3.7793,0,0,0,0,0,0,3.7715,3.7717,3.7739,3.7732,3.7735,3.7756,3.776,3.7764,3.7767,3.7786,3.779,3.778,3.7804,3.7806,3.7803,3.7793,3.7817,3.7817,3.7795,3.7794,3.7793,3.7762,0,0,0,0,0,0,3.7714,3.7717,3.7712,3.7731,3.7735,3.7736,3.7759,3.7764,3.7768,3.7771,3.7787,3.779,3.7805,3.7802,3.7803,3.7794,3.7817,3.7796,3.7795,3.7794,3.7764,3.776,3.7757,0,0,0,0,0,3.7713,3.7702,3.7712,3.7714,3.773,3.7735,3.7737,3.7755,3.7767,3.7762,3.7775,3.7789,3.7794,3.7802,3.7803,3.7793,3.7797,3.7795,3.7794,3.7766,3.7761,3.7757,0,0,0,0,0,0,3.7679,3.7704,3.7716,3.771,3.7721,3.7741,3.7735,3.7749,3.7756,3.7758,3.7779,3.7782,3.7777,3.7785,3.7793,3.7781,3.7798,3.7796,3.7776,3.7772,3.7768,3.7766,3.7817,0,0,0,0,0,3.7671,3.7674,3.7696,3.7689,3.7693,3.7713,3.7716,3.7729,3.774,3.7744,3.7757,3.7766,3.7769,3.7771,3.7776,3.7766,3.777,3.776,3.7756,3.7753,3.7751,3.7747,3.7742,3.7787,3.7787,3.7787,0,0,3.7654,3.7668,3.7669,3.7682,3.7692,3.7693,3.7717,3.7717,3.7719,3.7744,3.7743,3.7752,3.7764,3.7758,3.7755,3.7764,3.774,3.7751,3.7748,3.7748,3.7744,3.774,3.7736,3.7786,3.7786,3.7786,0,0,3.7624,3.7636,3.7631,3.7641,3.7655,3.7669,3.7668,3.7686,3.7694,3.7693,3.7713,3.7714,3.772,3.7727,3.7732,3.7707,3.772,3.7707,3.7687,3.7683,3.7679,3.7676,3.7667,3.7663,3.7706,3.7706,3.7705,0,3.7601,3.7605,3.7627,3.7627,3.7632,3.7657,3.7653,3.766,3.7675,3.7678,3.7688,3.7696,3.7705,3.7702,3.7696,3.7699,3.7698,3.7705,3.7678,3.7675,3.7673,3.7664,3.766,3.7704,3.7704,3.7704,3.7704,0,3.7576,3.7579,3.7574,3.7589,3.7594,3.7591,3.7612,3.7614,3.7627,3.7639,3.7638,3.7651,3.7658,3.7659,3.7671,3.7657,3.7662,3.7674,3.7691,3.7666,3.7659,3.7655,3.7701,3.7702,3.7703,3.7703,0,0,3.7524,3.7552,3.755,3.7557,3.7576,3.7578,3.7577,3.7586,3.7587,3.7597,3.7596,3.7601,3.7613,3.7618,3.7632,3.7628,3.7607,3.7642,3.7642,3.7634,3.7592,3.7581,3.7577,3.7617,3.7616,3.7616,3.759,0,3.7497,3.7497,3.7517,3.7512,3.7515,3.7539,3.7538,3.7549,3.7561,3.7564,3.7577,3.758,3.7597,3.76,3.7597,3.761,3.7598,3.7612,3.7615,3.7615,3.761,3.7573,3.7562,3.7537,3.7587,3.7587,3.7587,0,3.7465,3.7475,3.747,3.749,3.7491,3.749,3.75,3.7504,3.7516,3.7525,3.7532,3.7548,3.7547,3.7564,3.7563,3.7572,3.7575,3.7581,3.7581,3.7581,3.7598,3.7571,3.753,3.7526,3.7582,3.7582,3.7583,0,3.7427,3.7439,3.7437,3.7443,3.7466,3.7465,3.7474,3.7488,3.7492,3.7501,3.7503,3.7511,3.7515,3.7521,3.7538,3.7549,3.7535,3.7553,3.7542,3.7541,3.7537,3.7536,3.7494,3.7539,3.754,3.754,3.754,0,3.7394,3.739,3.7421,3.742,3.7416,3.7439,3.7434,3.7446,3.7458,3.7459,3.7481,3.7481,3.7505,3.7508,3.7521,3.7518,3.752,3.7526,3.753,3.7524,3.7523,3.7525,3.7527,3.7539,3.7539,3.7539,3.7539,0,3.7351,3.7371,3.7371,3.7394,3.74,3.7396,3.7415,3.7414,3.7428,3.7429,3.7431,3.7452,3.7457,3.7475,3.7484,3.7493,3.7485,3.7493,3.7481,3.7483,3.7471,3.7471,3.7427,3.7423,3.7471,3.7471,3.747,0,3.7328,3.7326,3.7349,3.7352,3.7361,3.7365,3.737,3.7393,3.7397,3.7412,3.741,3.7417,3.7423,3.7429,3.7445,3.7451,3.7459,3.7443,3.7459,3.7454,3.7458,3.7457,3.7457,3.7439,3.7438,3.7438,3.7437,0,3.7286,3.7296,3.7304,3.7314,3.732,3.7329,3.7339,3.734,3.7366,3.7369,3.7375,3.738,3.739,3.7396,3.7405,3.7414,3.7429,3.7432,3.743,3.7423,3.7416,3.7419,3.747,3.7433,3.7433,3.7433,3.7434,3.7434,3.7252,3.7251,3.7268,3.7275,3.7285,3.7295,3.7296,3.7311,3.7316,3.7327,3.734,3.7344,3.7357,3.7372,3.7379,3.7382,3.7391,3.7387,3.7386,3.7385,3.7382,3.7417,3.7384,3.7384,3.7384,3.7384,3.7385,0,3.721,3.7223,3.7229,3.7244,3.7249,3.7266,3.7278,3.7281,3.7285,3.7297,3.7303,3.731,3.7316,3.7333,3.734,3.7339,3.7347,3.734,3.734,3.7342,3.7374,3.7375,3.7335,3.7335,3.7335,3.7335,3.7335,3.7335,3.7189,3.7189,3.7202,3.7207,3.7219,3.7225,3.723,3.7239,3.7248,3.7255,3.7261,3.7273,3.7286,3.7295,3.7301,3.7306,3.7307,3.7299,3.7306,3.7335,3.734,3.7344,3.7345,3.7299,3.7299,3.7273,3.7273,3.7273]}]]